Terminal Aerodrome Forecast
Issued by NWS

Home | Current Version | Previous Version | Text Only | Print | Product List | Glossary Off
Versions: 1 2 3 4 5 6 7 8 9 10 11 12 13 14 15 16 17 18 19 20 21 22 23 24 25 26 27 28 29 30 31 32 33 34 35 36 37 38 39 40 41 42 43 44

000
FTUS43 KGRB 242012 AAA
TAFRHI
TAF AMD
KRHI 242012Z 2420/2518 02010G20KT P6SM -FZDZSN SCT015 OVC045
      TEMPO 2420/2422 3SM -SN BR BKN015
     FM242200 02012G20KT 2SM -SN BKN015 OVC025
     FM250200 36012G20KT 3SM -SN OVC015
     FM251000 32011G18KT P6SM -SN SCT015 OVC025 PROB30 2510/2514 4SM
      -SN BKN015
     FM251400 31013G21KT P6SM -SN SCT015 OVC035=

USA.gov is the U.S. government's official web portal to all federal, state and local government web resources and services.